User: anonymous   Login
Location: Unspecified
(0.0000°N, 0.0000°E)
Time: 14:22:58
(UTC+00:00)
Language:

WGS F3 (USA 211) - Orbit

View from above orbital plane
View from above orbital plane
View from above satellite
View from above satellite

Ground track
Ground track

The orbit data is extracted from the following two-line orbital elements,

1 36108U 09068A   15107.02949244 0.00000000  00000-0  00000-0 0    02
2 36108   0.0147 203.5173 0013421 357.9694   2.0254  1.00270000    00
Epoch (UTC): 17 April 2015 00:42:28
Eccentricity: 0.0013421
inclination: 0.0147°
perigee height: 35730 km
apogee height: 35843 km
right ascension of ascending node: 203.5173°
argument of perigee: 357.9694°
revolutions per day: 1.00270000
mean anomaly at epoch: 2.0254°
orbit number at epoch: 0

The dashed part of the orbit path shows where the satellite is in the earth's shadow,  

DLR